sat.trackr.live / text

‹ back to catalog

WEINA 1A

NORAD 43169 · 2018-011A

PAYLOAD ACTIVE UNKNOWN

§ Identity

Operator
Country
PRC
Launch date
2018-01-25
Launch site
XICLF
Launch vehicle
Mass (kg)
RCS (m²)

External: N2YO · Heavens-Above · Gunter

§ Orbital elements

Epoch: 2026-05-25T02:44:28.321152Z

Period
95.94 min
Inclination
34.9964°
Eccentricity
0.0002722
Mean motion
15.00884856 rev/d
Perigee alt
562.3 km
Apogee alt
566.1 km
Semi-major
6,942.3 km
B*
1.4803e-4
RAAN
302.1324°
Arg perigee
216.0173°
Mean anomaly
144.0351°
Rev number
45,465

§ Raw data

WEINA 1A1 43169U 18011A   26145.11421668  .00001893  00000+0  14803-3 0  99902 43169  34.9964 302.1324 0002722 216.0173 144.0351 15.00884856454655

JSON: /api/v1/satellites/43169 · /tle

For live sub-satellite position, see the globe view (requires WebGL).

§ Visibility from observer

Set your observer location to see the next 7 days of passes ≥ 10°. The values pass through the URL so the page stays shareable.

No JS? Fill the form by hand. The geolocation button needs JavaScript.